This demonstration page uses our WeatherBlox Daily Observations layout. Learn more.

Hourly Observations for July 14, 2019

Temp ( °F °C ) Dew Point ( °F °C ) Humidity (%) Winds ( mph kmh ) Pressure ( in mb ) Visibility ( mi km ) Precip ( " mm )
12:15 am 00:15 Clear 71 21.9 67 19.5 86 86 SSE 6 9 30 1016 10 16.09344 0 0
12:35 am 00:35 Clear 71 21.6 67 19.5 88 88 SSE 5 7 30 1016 10 16.09344 0 0
12:55 am 00:55 Clear 71 21.5 67 19.5 88 88 SSE 7 11 30 1016 10 16.09344 0 0
1:15 am 01:15 Clear 70 21.3 67 19.5 90 90 SSE 5 7 29.97 1015 10 16.09344 0 0
1:35 am 01:35 Clear 70 21.1 67 19.5 91 91 SSE 5 7 29.97 1015 10 16.09344 0 0
1:55 am 01:55 Clear 70 21.3 67 19.4 89 89 SSE 5 7 29.97 1015 10 16.09344 0 0
2:15 am 02:15 Clear 71 21.5 67 19.5 88 88 SSE 6 9 29.97 1015 10 16.09344 0 0
2:35 am 02:35 Clear 70 21.1 67 19.3 90 90 S 7 11 29.97 1015 10 16.09344 0 0
2:55 am 02:55 Clear 70 21.2 67 19.3 89 89 SSE 5 7 29.97 1015 10 16.09344 0 0
3:15 am 03:15 Clear 69 20.7 67 19.3 92 92 SSE 3 6 29.97 1015 10 16.09344 0 0
3:35 am 03:35 Clear 69 20.5 67 19.3 93 93 S 5 7 29.97 1015 10 16.09344 0 0
3:55 am 03:55 Clear 69 20.7 67 19.3 92 92 S 7 11 29.97 1015 10 16.09344 0 0
4:15 am 04:15 Clear 69 20.3 66 19.1 93 93 S 6 9 29.97 1015 10 16.09344 0 0
4:35 am 04:35 Clear 68 20 66 19 94 94 S 3 6 30 1016 10 16.09344 0 0
4:55 am 04:55 Clear 68 19.8 66 18.8 94 94 Calm 30.03 1017 10 16.09344 0 0
5:15 am 05:15 Clear 67 19.6 66 18.9 96 96 SSE 3 6 30.03 1017 10 16.09344 0 0
5:35 am 05:35 Clear 67 19.3 66 18.8 97 97 SSE 3 6 30.03 1017 10 16.09344 0 0
5:55 am 05:55 Clear 67 19.2 66 19 99 99 S 3 6 30.03 1017 10 16.09344 0 0
6:15 am 06:15 Clear 67 19.5 66 18.9 96 96 SSW 5 7 30.03 1017 10 16.09344 0 0
6:35 am 06:35 Sunny 68 19.8 66 19 95 95 S 5 7 30.03 1017 10 16.09344 0 0
6:55 am 06:55 Sunny 67 19.6 66 19 96 96 S 7 11 30.03 1017 10 16.09344 0 0
7:15 am 07:15 Sunny 68 20 66 19.1 95 95 S 6 9 30.03 1017 10 16.09344 0 0
7:35 am 07:35 Sunny 68 20 66 19.1 95 95 S 7 11 30.03 1017 10 16.09344 0 0
7:55 am 07:55 Sunny 69 20.4 67 19.3 93 93 SSW 5 7 30 1016 10 16.09344 0 0
8:15 am 08:15 Sunny 71 21.5 67 19.7 90 90 SSW 7 11 30 1016 10 16.09344 0 0
8:35 am 08:35 Sunny 72 22.3 68 19.8 86 86 SSW 7 11 30 1016 10 16.09344 0 0
8:55 am 08:55 Sunny 74 23.2 68 19.8 81 81 SW 8 13 30 1016 10 16.09344 0 0
9:15 am 09:15 Sunny 76 24.4 68 20 77 77 SSW 10 17 29.97 1015 10 16.09344 0 0
9:35 am 09:35 Sunny 77 25.1 68 19.9 73 73 SSW 12 19 29.97 1015 10 16.09344 0 0
9:55 am 09:55 Sunny 79 25.9 68 20.1 70 70 SSW 10 17 29.97 1015 10 16.09344 0 0
10:15 am 10:15 Sunny 80 26.5 67 19.7 66 66 SSW 13 20 29.97 1015 10 16.09344 0 0
10:35 am 10:35 Sunny 81 27 67 19.6 64 64 S 9 15 29.97 1015 10 16.09344 0 0
10:55 am 10:55 Sunny 81 27.3 68 19.8 64 64 SSW 9 15 29.97 1015 10 16.09344 0 0
11:15 am 11:15 Sunny 82 28 68 19.8 61 61 SSW 10 17 29.94 1014 10 16.09344 0 0
11:35 am 11:35 Sunny 83 28.5 68 20 60 60 S 9 15 29.94 1014 10 16.09344 0 0
11:55 am 11:55 Sunny 84 28.7 67 19.7 58 58 S 12 19 29.94 1014 10 16.09344 0 0
12:15 pm 12:15 Sunny 85 29.3 69 20.5 59 59 S 10 17 29.94 1014 10 16.09344 0 0
12:35 pm 12:35 Sunny 85 29.5 67 19.4 55 55 SSW 12 19 29.94 1014 10 16.09344 0 0
12:55 pm 12:55 Sunny 86 29.8 67 19.7 55 55 S 13 20 29.94 1014 10 16.09344 0 0
1:15 pm 13:15 Sunny 86 30.1 68 20.2 55 55 S 9 15 29.91 1013 10 16.09344 0 0
1:35 pm 13:35 Sunny 86 30.1 68 20 55 55 S 12 19 29.91 1013 10 16.09344 0 0
1:55 pm 13:55 Sunny 87 30.3 68 20.1 54 54 SSE 9 15 29.91 1013 10 16.09344 0 0
2:15 pm 14:15 Sunny 87 30.5 68 20 53 53 S 10 17 29.91 1013 10 16.09344 0 0
2:35 pm 14:35 Sunny 87 30.8 68 20.2 53 53 S 12 19 29.91 1013 10 16.09344 0 0
2:55 pm 14:55 Sunny 88 31 68 19.8 51 51 S 13 20 29.91 1013 10 16.09344 0 0
3:15 pm 15:15 Sunny 88 31 68 20.1 52 52 SSE 12 19 29.91 1013 10 16.09344 0 0
3:35 pm 15:35 Sunny 89 31.4 68 19.9 50 50 S 9 15 29.88 1012 10 16.09344 0 0
3:55 pm 15:55 Sunny 89 31.4 69 20.4 52 52 S 12 19 29.85 1011 10 16.09344 0 0
4:15 pm 16:15 Sunny 89 31.6 69 20.3 51 51 S 12 19 29.85 1011 10 16.09344 0 0
4:35 pm 16:35 Sunny 89 31.5 69 20.3 51 51 S 10 17 29.85 1011 10 16.09344 0 0
4:55 pm 16:55 Sunny 89 31.6 69 20.7 52 52 SSE 12 19 29.85 1011 10 16.09344 0 0
5:15 pm 17:15 Sunny 89 31.5 69 20.4 52 52 SSE 12 19 29.85 1011 10 16.09344 0 0
5:35 pm 17:35 Sunny 88 31.3 68 20 51 51 SSE 12 19 29.83 1010 10 16.09344 0 0
5:55 pm 17:55 Sunny 88 31.3 68 19.9 51 51 SSE 10 17 29.83 1010 10 16.09344 0 0
6:15 pm 18:15 Sunny 88 31 68 20 52 52 SSE 10 17 29.83 1010 10 16.09344 0 0
6:35 pm 18:35 Sunny 88 31 69 20.4 53 53 SSE 9 15 29.83 1010 10 16.09344 0 0
6:55 pm 18:55 Sunny 87 30.6 69 20.6 55 55 SSE 9 15 29.83 1010 10 16.09344 0 0
7:15 pm 19:15 Sunny 86 30.1 71 21.5 60 60 SSE 7 11 29.85 1011 10 16.09344 0 0
7:35 pm 19:35 Sunny 85 29.5 71 21.8 63 63 SSE 7 11 29.85 1011 10 16.09344 0 0
7:55 pm 19:55 Sunny 84 28.7 71 21.7 66 66 SSE 7 11 29.83 1010 10 16.09344 0 0
8:15 pm 20:15 Sunny 82 27.7 71 21.7 70 70 SSE 6 9 29.83 1010 10 16.09344 0 0
8:35 pm 20:35 Sunny 80 26.8 72 22 75 75 SSE 6 9 29.83 1010 10 16.09344 0 0
8:55 pm 20:55 Sunny 78 25.7 71 21.6 78 78 SSE 5 7 29.88 1012 10 16.09344 0 0
9:15 pm 21:15 Clear 77 25.2 70 21 78 78 S 5 7 29.88 1012 10 16.09344 0 0
9:35 pm 21:35 Clear 77 24.8 69 20.5 77 77 S 5 7 29.88 1012 10 16.09344 0 0
9:55 pm 21:55 Clear 76 24.2 69 20.3 79 79 S 6 9 29.88 1012 10 16.09344 0 0
10:15 pm 22:15 Clear 75 23.7 68 20.1 80 80 S 7 11 29.88 1012 10 16.09344 0 0
10:35 pm 22:35 Clear 74 23.2 68 20.2 83 83 S 6 9 29.88 1012 10 16.09344 0 0
10:55 pm 22:55 Clear 74 23.1 68 20 83 83 S 7 11 29.88 1012 10 16.09344 0 0
11:15 pm 23:15 Clear 74 23.6 67 19.6 78 78 S 8 13 29.88 1012 10 16.09344 0 0
11:35 pm 23:35 Clear 76 24.5 66 19.1 72 72 S 8 13 29.88 1012 10 16.09344 0 0
11:55 pm 23:55 Clear 74 23.6 67 19.2 76 76 S 5 7 29.88 1012 10 16.09344 0 0

Powered by AerisWeather